Вернуться в каталог

FENGYUN 1C DEB

АктивенPO
NORAD 31731·DEBRIS·🇨🇳 China

Запущен May 10, 1999 с Taiyuan Satellite Launch Center

Loading…

Ближайшие Пролёты (ближайшие 24 часа)

TLE

СвежийSource: Space-Track

Эпоха: Sep 14, 2026, 04:05 UTC

1 31731U 99025CEE 26257.17082235  .00002975  00000-0  90635-3 0  9999
2 31731  99.2927 334.6592 0010203  17.3183 342.8351 14.42825834997996

Отслеживайте FENGYUN 1C DEB в реальном времени с AllMySat

Download on the App Store